ONEWEB-0567 (55147 NORAD) Tracking and Keplerian Element Data

This shows tracking and keplerian element data for the satellite.

Feedback or suggestion? Click here.




ElementValue
Catalog55147
NameONEWEB-0567
Epoch Orbit130
Epoch Day85.00001157
Epoch Year2023
RAAN253.5893
Inclination86.6237
Eccentricity0.000428
Argument of Perigee358.9401
Mean Anonmoly117.3367
Mean Motion14.65708312
Decay Rate-0.00018471
L11 55147U 23004H 23085.00001157 -.00018471 00000+0 -34116-2 0 9992
L22 55147 86.6237 253.5893 0004280 358.9401 117.3367 14.65708312 1304



Live tracking and technical data element details for ONEWEB-0567 (NORAD 55147). ONEWEB-0567 can be tracked NOW for your location showing map with azimuth and elevation plus other details from your city location.







IsCatalogInMostPopularTable: catalog: 55147, numindb: 9
Update: records affected: 1



GetName: 55147 ONEWEB-0567

Hit Count: updated at: Mon, 27 Mar 2023 06:57:02 GMT